User: anonymous   Login
Location: Three Oaks Observatory
(31.1535°N, 83.5955°W)
Time: 15:19:53
(UTC-04:00)
Language:

LO-87 - Orbit

View from above orbital plane
View from above orbital plane
View from above satellite
View from above satellite

Ground track
Ground track

The orbit data is extracted from the following two-line orbital elements,

1 41557U 16033B   19077.52104080  .00001488  00000-0  58957-4 0  9998
2 41557  97.4196 165.5728 0012336 262.4425  97.5412 15.26952328156029
Epoch (UTC): 18 March 2019 12:30:17
Eccentricity: 0.0012336
inclination: 97.4196°
perigee height: 476 km
apogee height: 493 km
right ascension of ascending node: 165.5728°
argument of perigee: 262.4425°
revolutions per day: 15.26952328
mean anomaly at epoch: 97.5412°
orbit number at epoch: 15602

The dashed part of the orbit path shows where the satellite is in the earth's shadow,  

DLR